Regional Weather Roundup
Issued by NWS

Home | Current Version | Previous Version | Graphics & Text | Print | Product List | Glossary On
Versions: 1 2 3 4 5 6 7 8 9 10 11 12 13 14 15 16 17 18 19 20 21 22 23 24 25 26 27
000
ASUS45 KBOI 241010
RWRID

IDAHO REGIONAL WEATHER ROUNDUP
NATIONAL WEATHER SERVICE BOISE ID
400 AM MDT SUN JUL 24 2016

NOTE: "FAIR" INDICATES FEW OR NO CLOUDS BELOW 12000 FEET
WITH NO SIGNIFICANT WEATHER AND/OR OBSTRUCTIONS TO VISIBILITY

IDZ012-014-241100-
SOUTHWEST IDAHO


CITY           SKY/WX    TMP DP  RH WIND       PRES   REMARKS
BOISE          CLEAR     62  42  47 S3        30.05S
CALDWELL       NOT AVBL
MOUNTAIN HOME  CLEAR     61  34  35 NW12      30.04F
$$

IDZ016-017-241100-
SOUTHCENTRAL IDAHO


CITY           SKY/WX    TMP DP  RH WIND       PRES   REMARKS
BURLEY         CLEAR     50  38  63 SW7       30.09F
JEROME         CLEAR     60  33  36 S9        30.10F
TWIN FALLS     CLEAR     64  24  21 S13       30.10F
$$

IDZ019>023-241100-
SOUTHEAST IDAHO


CITY           SKY/WX    TMP DP  RH WIND       PRES   REMARKS
IDAHO FALLS    CLEAR     57  34  41 S13       30.13S
POCATELLO      CLEAR     63  24  22 SW9       30.15R
REXBURG        CLEAR     50  37  61 E8        30.15R
$$

IDZ006-010-011-018-031-032-241100-
CENTRAL IDAHO MOUNTAINS


CITY           SKY/WX    TMP DP  RH WIND       PRES   REMARKS
MCCALL         CLEAR     51  42  71 N5        30.19F
HAILEY         CLEAR     54  32  43 NW8       30.17S
STANLEY          N/A     38  29  70 CALM      30.28F
SALMON         CLEAR     54  41  62 E3        30.16S
CHALLIS        CLEAR     59  36  42 NW7       30.18F
$$

IDZ002-004-006-007-026-241100-
NORTHERN IDAHO


CITY           SKY/WX    TMP DP  RH WIND       PRES   REMARKS
LEWISTON       CLEAR     61  42  49 SE3       30.08S
LOWELL           N/A     55  50  83 NW5       30.15S
COEUR D`ALENE  CLEAR     52  46  82 CALM      30.11S
MULLAN PASS    CLEAR     50  39  66 NW3       30.24F
$$




USA.gov is the U.S. government's official web portal to all federal, state and local government web resources and services.